Regional Weather Roundup
Issued by NWS New Orleans/Baton Rouge, LA

Home | Current Version | Previous Version | Graphics & Text | Print | Product List | Glossary On
Versions: 1 2 3 4 5 6 7 8 9 10 11 12 13 14 15 16 17 18 19 20 21 22 23 24 25 26 27 28 29 30 31 32 33 34 35 36 37 38 39 40 41 42 43 44 45 46 47 48 49 50
683
ASUS44 KLIX 170310
RWRLIX
NEW ORLEANS REGIONAL WEATHER ROUNDUP
NATIONAL WEATHER SERVICE NEW ORLEANS LA
1000 PM CDT WED APR 16 2014

NOTE: "FAIR" INDICATES FEW OR NO CLOUDS BELOW 12,000 FEET WITH NO
      SIGNIFICANT WEATHER AND/OR OBSTRUCTIONS TO VISIBILITY.
      SKY/WX - SKY CONDITION AND SIGNIFICANT WEATHER.
      TMP - AIR TEMPERATURE.     DP    - DEWPOINT TEMPERATURE.
      RH  - RELATIVE HUMIDITY.   PRES  - PRESSURE.
      HI  - HEAT INDEX.          WCI   - WIND CHILL INDEX.

*  THESE STATIONS ARE NOT NWS OR FAA STATIONS AND ARE NOT UNDER
   NWS QUALITY CONTROL.

LAZ038-040-048-061>063-065>067-069-170400-
SOUTHEAST LOUISIANA

CITY           SKY/WX    TMP DP  RH WIND       PRES   REMARKS
N.O. AUDUBON     N/A     56  44  64 MISG        N/A
N.O. INTL ARPT CLEAR     53  45  74 SE3       30.17R
N.O. LAKEFRONT CLEAR     54  45  71 SE7       30.17R
N.O. DOWNTOWN*   N/A     55  41  58 CALM      30.17R
SLIDELL        PTCLDY    48  44  86 CALM      30.16R
BATON ROUGE    CLEAR     51  43  74 E6        30.13R
BOOTHVILLE     CLOUDY    58  49  72 E8        30.16R
BELLE CHASSE   PTCLDY    47  44  90 CALM      30.16R
BOGALUSA*        N/A     53  44  69 S3        30.18R
GALLIANO*      CLOUDY    57  46  65 E9        30.16R
NEW ROADS*       N/A     55  42  61 SE5       30.14R
GONZALES*        N/A     53  45  74 CALM      30.14S
HAMMOND*       CLEAR     50  45  81 CALM      30.18R
HOUMA*           N/A     51  45  80 E7        30.15R
PORT FOURCHON* CLOUDY    59  46  63 SE12G18   30.16R

$$

MSZ070-080>082-170400-
SOUTHERN MISSISSIPPI

CITY           SKY/WX    TMP DP  RH WIND       PRES   REMARKS
MCCOMB         PTCLDY    48  42  80 CALM      30.13R
GULFPORT       PTCLDY    53  47  79 SE7       30.16R
BILOXI         PTCLDY    55  47  75 E3        30.17R
PASCAGOULA     CLEAR     48  47  96 CALM      30.17R

$$

COASTAL OBSERVATIONS
LAKE AND NEARSHORE STATIONS

STATION/POSITION TIME  TEMP    WIND        PRES    WAVE
                       AIR SEA DIR/SP/G            HT/PER
                 (UTC) (F)     (DEG/KT/KT) (MB)    (FT/S)
PASCAGOULA       0300   58     120/  7/ 12 1020.5
WAVELAND YACHT   0300   58 66  130/ 12/ 14 1020.5
GRAND ISLE       0300   58 67  100/  8/ 11 1021.2
SOUTHWEST PASS   0300   61 58  100/ 13/ 18 1020.9
NEW CANAL        0300   54 63  140/  2/  4 1021.7
SHELL BEACH      0300   56 62  110/  9/ 11 1021.1

OFFSHORE STATIONS

STATION/POSITION TIME  TEMP    WIND        PRES    WAVE
                       AIR SEA DIR/SP/G            HT/PER
                 (UTC) (F)     (DEG/KT/KT) (MB)    (FT/S)
64 S DAUPHIN ISL 0218   62 69  100/ 19/ 23 1020.6

$$




USA.gov is the U.S. government's official web portal to all federal, state and local government web resources and services.